P/2021 L2 ( Leonard )

Japanese version
Home page
Updated on November 15, 2021

---------------------------------------------------------------------

* Profile

Discovery Date June 8, 2021
Magnitude 20.3 mag
Discoverer G. J. Leonard (Munt Lemmon Survey)

* Pictures

* Orbital Elements

Epoch 2021 July 5.0 TT = JDT 2459400.5
T 2021 July 24.54992 TT                                 Rudenko
q   1.9385563            (2000.0)            P               Q
n   0.12077432     Peri.   51.53888     +0.69340589     +0.62480391
a   4.0534018      Node   266.67765     -0.72052570     +0.59740334
e   0.5217458      Incl.   21.06968     -0.00556621     +0.50272191
P   8.16
From 120 observations 2021 May 11-Oct. 16, mean residual 0".5.

* Magnitudes Graph

        m1 = 13.0 + 5 log d + 20.0 log r(t - 50)

---------------------------------------------------------------------

The orbital elements are published on M.P.E.C. 2021-U31.
The magnitudes graphs are made with Comet for Windows.

---------------------------------------------------------------------

Copyright(C) Seiichi Yoshida (comet@aerith.net). All rights reserved.